Regional Weather Roundup
Issued by NWS Kansas City/Pleasant Hill, MO

Home | Current Version | Previous Version | Graphics & Text | Print | Product List | Glossary Off
Versions: 1 2 3 4 5 6 7 8 9 10 11 12 13 14 15 16 17 18 19 20 21 22 23 24 25 26 27 28 29 30 31 32 33 34 35 36 37 38 39 40 41 42 43 44 45 46 47 48 49 50

502
ASUS43 KEAX 141510
RWREAX

WEATHER ROUNDUP FOR EASTERN KANSAS AND NORTHWEST MISSOURI
NATIONAL WEATHER SERVICE KANSAS CITY/PLEASANT HILL MO
900 AM CST SUN FEB 14 2016

KSZ040-057-103>105-MOZ028-029-037-043-141600-
...KANSAS CITY METROPOLITAN AREA...

CITY           SKY/WX    TMP DP  RH WIND       PRES   REMARKS
K.C. INTL      MOSUNNY   29  18  63 S15       29.96F WCI  18
K.C. DOWNTOWN  CLOUDY    29  19  66 SE6       30.00F WCI  23
LEES SUMMIT    PTSUNNY   28  23  81 S9        30.00S WCI  19
OLATHE - IXD   SUNNY     29  21  72 SE7       29.99S WCI  22
OLATHE - OJC   SUNNY     27  22  81 S7        29.99S WCI  19
LAWRENCE       MOSUNNY   28  19  69 SE7       29.99F WCI  21

$$

MOZ001>008-011>017-020>025-030>033-038>040-044>046-053-054-141600-
...NORTHERN AND CENTRAL MISSOURI...

CITY           SKY/WX    TMP DP  RH WIND       PRES   REMARKS
ST. JOSEPH     CLOUDY    28  11  48 S10       29.98F WCI  19
MOSBY          CLOUDY    28  19  69 SE8       30.02S WCI  20
WARRENSBURG    CLOUDY    30  27  86 S8        30.02S WCI  23
WHITEMAN AFB   NOT AVBL
CLINTON          N/A     30  28  93 SE12G17   30.03S WCI  21
SEDALIA        CLOUDY    28  24  85 S14       30.03F WCI  17
WARSAW         NOT AVBL
CHILLICOTHE      N/A     24  16  71 S15G22    30.03F WCI  11
KIRKSVILLE     CLOUDY    20  15  81 SE20      30.03F WCI   4

$$

MOZ041-047>049-056>058-063>065-088>090-097-141600-
...EASTERN AND SOUTHERN MISSOURI...

CITY           SKY/WX    TMP DP  RH WIND       PRES   REMARKS
ST. LOUIS INTL SNOW      22  17  81 SE13      30.18S VSB 1/2 WCI  10
SPIRIT OF STL  SNOW      21  19  92 SE7       30.16F VSB 1/4 WCI  12
COLUMBIA       FRZ DRZL  22  19  89 SE10G21   30.05F WCI  11
JEFFERSON CITY CLOUDY    23  20  88 SE13      30.09F FOG     WCI  11
ROLLA          CLOUDY    24  21  88 S17       30.05F WCI  11
OSAGE BEACH    CLOUDY    27  19  74 CALM      30.07S
SPRINGFIELD    CLOUDY    26  17  68 SE12      30.04S HAZE    WCI  16
BRANSON        CLOUDY    28  10  47 SE15      30.05R WCI  17
JOPLIN         CLOUDY    30  25  81 SE13      30.01F WCI  20
WEST PLAINS    CLOUDY    24  19  81 SE7       30.10S WCI  16

$$

IAZ060-094-KSZ022-034>040-054-083-096-NEZ052-066-093-141600-
...KANSAS...SOUTHEAST NEBRASKA AND IOWA...

CITY           SKY/WX    TMP DP  RH WIND       PRES   REMARKS
TOPEKA         SUNNY     27  13  55 SE3       29.98F
MANHATTAN      SUNNY     24  12  60 S7        29.97F WCI  16
EMPORIA        SUNNY     30  14  51 S9        29.97F WCI  22
CHANUTE        SUNNY     37  17  44 SE6       30.00F WCI  32
WICHITA        MOSUNNY   30  13  49 CALM      29.99S
OMAHA          CLOUDY    24  11  57 S14       29.90F WCI  12
LINCOLN        CLOUDY    24  15  68 S10       29.89F WCI  14
FALLS CITY       N/A     26   9  48 S12       29.95F WCI  16
LAMONI         CLOUDY    20  14  77 SE14G21   29.96F WCI   7
DES MOINES     SNOW      18  14  84 SE9       30.00F VSB 1/2 WCI   7

$$





USA.gov is the U.S. government's official web portal to all federal, state and local government web resources and services.